COSMOS 2407

Last updated on Thu Aug 20 2026 00:03:29 GMT+0000 (Coordinated Universal Time)

1 28380U 04028A 26230.95997272 .00000038 00000+0 22920-4 0 9997 2 28380 82.9604 28.3283 0040563 77.3673 35.7319 13.76338404108511
UTC large
Height (km)
Speed (km/s)
/
Latitude / Longitude
Inclination (degrees)
Orbital Period (minutes)
Azimuth
Elevation
Range (km)
Doppler Factor

Next 0 passes for location: London (51.5072 / 0.1276)

No passes found over London.
COSMOS 2407